Location: Newark
(50.0336°N, 22.0047°E)
Time: 02:03:11
(UTC+00:00)

Envisat - Pass Details

Date: 29 January 2020
Orbit: 764 x 766 km, 98.1° (Epoch: 25 February)

Event Time Altitude Azimuth Distance (km) Brightness Sun altitude
Rises 05:20:43 0° 14° (NNE) 3,245 6.2 -8.2°
Reaches altitude 10° 05:23:03 10° 16° (NNE) 2,314 5.5 -7.9°
Maximum altitude 05:28:10 82° 104° (ESE) 780 3.2 -7.1°
Drops below altitude 10° 05:33:14 10° 192° (SSW) 2,296 5.6 -6.3°
Sets 05:35:32 0° 194° (SSW) 3,218 6.3 -6.0°
